珠海一号 01星 (ZHUHAI-1 01 (CAS-4A))

导读 | 星芒AI

ZHUHAI-1 01(CAS-4A)是中国珠海一号卫星星座中的首颗卫星,由中科院微小卫星创新研究院研制。该卫星主要用于高分辨率遥感观测,具备多光谱成像能力,服务于环境监测、城市规划、农业资源调查等领域。卫星于2018年发射,运行在低地球轨道,具有较高的图像质量和数据获取效率,为商业遥感应用提供了重要支持。

基本信息
目录编号:
42761
目录名称:
ZHUHAI-1 01
国际标识:
2017-034D
轨道中心:
EARTH
卫星名称:
珠海一号 01星
卫星全名:
珠海一号 01星 (ZHUHAI-1 01 (CAS-4A))
卫星状态:
已陨落 最后检测时间 2025-10-09
发射日期:
2017-06-15 UTC
国别 :
中国 (CN)
星等 :
--
轨道信息
数据来源 国际轨道数据
星历时间: 2025-10-08T16:11:54+0800
轨道信息已过期68天
半长轴: 6581.362km
偏心率: 0.0008135
轨道倾角: 42.993°
近地点辐角 81.271°
升交点赤经 303.508°
平近点角 278.910°
近地点: 197.873km
远地点: 208.581km
周期: 88.559分钟
每日圈数: 16.260322
详细信息
平衡模式:
三轴稳定
覆盖范围:
全球
运营商:
珠海欧比特宇航科技股份有限公司
运营商所在国:
中国
制造商(研发单位):
珠海欧比特宇航科技股份有限公司
制造商所在国:
中国
使用方式:
暂无
卫星简介
珠海一号(Zhuhai-1)卫星星座是由珠海欧比特宇航科技股份有限公司发射并运营的商业遥感微纳卫星星座,整个星座由34颗遥感卫星组成,分别是2颗视频试验卫星、10颗视频卫星、10颗高光谱卫星、2颗高分光学卫星、2颗SAR卫星和8颗红外卫星。该卫星仍在工作。